SLM993 EHAM-SMJP

Flight info

Callsign SLM993
Flight time N/A
Altitude 35000
Route WOODY N872 MEDIL DCT KOVIN DCT NIDUV DCT KIHVI UN872 ERIGA UN741 AZFIC DCT LOTEE DCT AGADO/N0469F370 DCT GUNTI/M082F360 DCT 3630N02000W 32N030W/M082F380 29N035W 26N040W 22N045W DCT OXODE/N0471F400 DCT 15N050W 0927N05300W 0730N05400W DCT TODOL
Aircraft A346/H-SDE1E2E3GHIJ4J5LM1P2RWXYZ/SB1D1

Departure

Time N/A
Airport Amsterdam Airport Schiphol (EHAM)

Arrival

Time 2026-04-14 18:06
Airport Johan Adolf Pengel International Airport (SMJP)
Time Latitude Longitude Altitude Speed Heading
2026-04-14 12:43 33.10509 -27.79394 36286 ft 444 kts 240°
2026-04-14 12:44 33.07404 -27.85775 36287 ft 444 kts 240°
2026-04-14 12:44 33.04299 -27.92144 36286 ft 444 kts 240°
2026-04-14 12:45 32.99634 -28.01695 36285 ft 444 kts 240°
2026-04-14 12:45 32.96540 -28.08014 36289 ft 444 kts 240°
2026-04-14 12:46 32.93421 -28.14374 36286 ft 444 kts 240°
2026-04-14 12:46 32.90296 -28.20734 36284 ft 445 kts 240°
2026-04-14 12:47 32.87166 -28.27095 36285 ft 445 kts 240°
2026-04-14 12:47 32.84031 -28.33455 36285 ft 445 kts 240°
2026-04-14 12:48 32.80892 -28.39811 36284 ft 445 kts 240°
2026-04-14 12:48 32.77745 -28.46171 36286 ft 446 kts 240°
2026-04-14 12:49 32.74598 -28.52522 36284 ft 446 kts 240°
2026-04-14 12:49 32.71439 -28.58885 36282 ft 446 kts 240°
2026-04-14 12:50 32.66703 -28.68406 36282 ft 446 kts 240°
2026-04-14 12:51 32.63538 -28.74753 36279 ft 446 kts 240°
2026-04-14 12:51 32.60372 -28.81093 36278 ft 446 kts 240°
2026-04-14 12:52 32.57203 -28.87429 36284 ft 446 kts 240°
2026-04-14 12:52 32.54029 -28.93763 36283 ft 446 kts 240°
2026-04-14 12:53 32.50853 -29.00088 36284 ft 446 kts 240°
2026-04-14 12:53 32.47698 -29.06364 36280 ft 446 kts 240°
2026-04-14 12:54 32.44519 -29.12676 36282 ft 446 kts 240°
2026-04-14 12:54 32.41332 -29.18992 36281 ft 446 kts 240°
2026-04-14 12:55 32.38148 -29.25294 36280 ft 446 kts 240°
2026-04-14 12:55 32.34957 -29.31598 36279 ft 446 kts 240°
2026-04-14 12:56 32.31764 -29.37894 36282 ft 446 kts 240°
2026-04-14 12:56 32.28571 -29.44180 36284 ft 446 kts 240°
2026-04-14 12:57 32.25371 -29.50470 36280 ft 446 kts 240°
2026-04-14 12:57 32.22168 -29.56756 36280 ft 446 kts 240°
2026-04-14 12:58 32.18960 -29.63040 36281 ft 446 kts 240°
2026-04-14 12:58 32.15753 -29.69312 36280 ft 446 kts 240°
2026-04-14 12:59 32.12539 -29.75588 36279 ft 446 kts 240°
2026-04-14 12:59 32.09324 -29.81858 36281 ft 446 kts 240°
2026-04-14 13:00 32.06108 -29.88118 36275 ft 446 kts 240°
2026-04-14 13:00 32.02888 -29.94376 36282 ft 446 kts 240°
2026-04-14 13:01 31.99640 -30.00607 36281 ft 446 kts 238°
2026-04-14 13:01 31.96228 -30.06665 36281 ft 446 kts 238°
2026-04-14 13:02 31.92789 -30.12757 36283 ft 446 kts 238°
2026-04-14 13:02 31.89458 -30.18652 36282 ft 446 kts 238°
2026-04-14 13:03 31.86011 -30.24742 36280 ft 446 kts 238°
2026-04-14 13:03 31.82562 -30.30828 36274 ft 446 kts 238°
2026-04-14 13:04 31.79115 -30.36900 36281 ft 446 kts 238°
2026-04-14 13:04 31.75664 -30.42970 36273 ft 446 kts 238°
2026-04-14 13:05 31.72212 -30.49033 36281 ft 446 kts 238°
2026-04-14 13:05 31.68757 -30.55091 36280 ft 446 kts 238°
2026-04-14 13:06 31.65297 -30.61148 36277 ft 446 kts 238°
2026-04-14 13:06 31.61825 -30.67216 36281 ft 446 kts 238°
2026-04-14 13:07 31.58362 -30.73260 36275 ft 446 kts 238°
2026-04-14 13:07 31.54898 -30.79296 36276 ft 446 kts 238°
2026-04-14 13:08 31.51427 -30.85334 36279 ft 446 kts 238°
2026-04-14 13:08 31.47971 -30.91337 36276 ft 446 kts 238°
2026-04-14 13:09 31.44492 -30.97370 36278 ft 446 kts 238°
2026-04-14 13:09 31.41016 -31.03389 36280 ft 446 kts 238°
2026-04-14 13:10 31.37533 -31.09412 36276 ft 446 kts 238°
2026-04-14 13:10 31.34050 -31.15424 36277 ft 446 kts 238°
2026-04-14 13:11 31.30563 -31.21435 36278 ft 446 kts 238°
2026-04-14 13:11 31.27077 -31.27433 36275 ft 446 kts 238°
2026-04-14 13:12 31.23588 -31.33429 36278 ft 446 kts 238°
2026-04-14 13:12 31.20098 -31.39417 36275 ft 445 kts 238°
2026-04-14 13:13 31.16605 -31.45401 36278 ft 445 kts 238°
2026-04-14 13:13 31.13112 -31.51375 36275 ft 445 kts 238°
2026-04-14 13:14 31.09617 -31.57342 36273 ft 445 kts 238°
2026-04-14 13:14 31.06119 -31.63308 36290 ft 447 kts 238°
2026-04-14 13:14 31.04352 -31.66319 36495 ft 450 kts 238°
2026-04-14 13:15 31.02588 -31.69321 36945 ft 447 kts 238°
2026-04-14 13:15 31.00834 -31.72302 37421 ft 444 kts 238°
2026-04-14 13:15 30.99093 -31.75260 37846 ft 441 kts 238°
2026-04-14 13:15 30.97358 -31.78206 38208 ft 440 kts 238°
2026-04-14 13:16 30.95622 -31.81151 38262 ft 440 kts 238°
2026-04-14 13:16 30.92159 -31.87021 38271 ft 439 kts 238°
2026-04-14 13:17 30.88718 -31.92845 38272 ft 439 kts 238°
2026-04-14 13:17 30.85232 -31.98736 38272 ft 439 kts 238°
2026-04-14 13:18 30.81762 -32.04592 38273 ft 438 kts 238°
2026-04-14 13:18 30.78298 -32.10429 38273 ft 438 kts 238°
2026-04-14 13:19 30.74830 -32.16263 38270 ft 438 kts 238°
2026-04-14 13:19 30.71364 -32.22084 38268 ft 438 kts 238°
2026-04-14 13:20 30.67897 -32.27901 38271 ft 437 kts 238°
2026-04-14 13:20 30.64429 -32.33711 38271 ft 437 kts 238°
2026-04-14 13:21 30.60955 -32.39521 38267 ft 437 kts 238°
2026-04-14 13:21 30.57475 -32.45333 38268 ft 437 kts 238°
2026-04-14 13:22 30.54002 -32.51123 38275 ft 437 kts 238°
2026-04-14 13:22 30.51113 -32.55936 38272 ft 437 kts 238°
2026-04-14 13:23 30.47634 -32.61722 38272 ft 437 kts 238°
2026-04-14 13:23 30.44147 -32.67514 38270 ft 436 kts 238°
2026-04-14 13:24 30.40669 -32.73282 38268 ft 436 kts 238°
2026-04-14 13:24 30.35442 -32.81935 38267 ft 436 kts 238°
2026-04-14 13:25 30.31960 -32.87690 38264 ft 436 kts 238°
2026-04-14 13:26 30.24995 -32.99175 38265 ft 435 kts 238°
2026-04-14 13:26 30.21512 -33.04906 38266 ft 435 kts 238°
2026-04-14 13:27 30.18043 -33.10605 38266 ft 435 kts 238°
2026-04-14 13:27 30.14557 -33.16326 38265 ft 435 kts 238°
2026-04-14 13:28 30.11071 -33.22038 38266 ft 434 kts 238°
2026-04-14 13:28 30.07584 -33.27742 38265 ft 434 kts 238°
2026-04-14 13:29 30.04094 -33.33445 38263 ft 434 kts 238°
2026-04-14 13:29 30.00606 -33.39134 38265 ft 434 kts 238°
2026-04-14 13:30 29.97113 -33.44826 38262 ft 434 kts 238°
2026-04-14 13:30 29.93622 -33.50507 38266 ft 434 kts 238°
2026-04-14 13:31 29.90120 -33.56196 38265 ft 433 kts 238°
2026-04-14 13:31 29.86623 -33.61870 38260 ft 433 kts 238°
2026-04-14 13:32 29.83128 -33.67532 38274 ft 433 kts 238°
2026-04-14 13:32 29.79632 -33.73189 38260 ft 433 kts 238°
2026-04-14 13:33 29.76133 -33.78843 38256 ft 433 kts 238°
2026-04-14 13:33 29.72634 -33.84488 38259 ft 433 kts 238°
2026-04-14 13:34 29.67383 -33.92946 38256 ft 433 kts 238°
2026-04-14 13:35 29.63903 -33.98542 38270 ft 433 kts 238°
2026-04-14 13:35 29.60373 -34.04209 38271 ft 432 kts 238°
2026-04-14 13:36 29.56891 -34.09792 38267 ft 432 kts 238°
2026-04-14 13:36 29.53384 -34.15408 38249 ft 432 kts 238°
2026-04-14 13:37 29.49874 -34.21021 38264 ft 432 kts 238°
2026-04-14 13:37 29.46361 -34.26631 38256 ft 432 kts 238°
2026-04-14 13:38 29.42844 -34.32240 38256 ft 432 kts 238°
2026-04-14 13:38 29.39331 -34.37835 38254 ft 432 kts 237°
2026-04-14 13:39 29.35813 -34.43432 38253 ft 432 kts 237°
2026-04-14 13:39 29.32292 -34.49024 38258 ft 432 kts 237°
2026-04-14 13:40 29.28774 -34.54605 38251 ft 432 kts 237°
2026-04-14 13:40 29.25251 -34.60186 38252 ft 431 kts 237°
2026-04-14 13:41 29.21729 -34.65758 38256 ft 431 kts 237°
2026-04-14 13:41 29.18206 -34.71324 38255 ft 431 kts 237°
2026-04-14 13:42 29.14680 -34.76888 38254 ft 431 kts 237°
2026-04-14 13:42 29.11151 -34.82450 38254 ft 431 kts 237°
2026-04-14 13:43 29.07623 -34.88005 38253 ft 431 kts 237°
2026-04-14 13:43 29.04088 -34.93563 38253 ft 431 kts 237°
2026-04-14 13:44 29.00559 -34.99112 38252 ft 431 kts 238°
2026-04-14 13:44 28.97251 -35.04829 38253 ft 430 kts 240°
2026-04-14 13:45 28.93988 -35.10574 38254 ft 430 kts 240°
2026-04-14 13:45 28.90746 -35.16281 38257 ft 431 kts 240°
2026-04-14 13:46 28.87482 -35.22020 38246 ft 430 kts 240°
2026-04-14 13:46 28.84218 -35.27754 38251 ft 430 kts 240°
2026-04-14 13:47 28.80946 -35.33494 38254 ft 430 kts 240°
2026-04-14 13:47 28.77677 -35.39220 38253 ft 430 kts 240°
2026-04-14 13:48 28.74407 -35.44941 38254 ft 430 kts 240°
2026-04-14 13:48 28.71136 -35.50656 38253 ft 430 kts 240°
2026-04-14 13:49 28.67862 -35.56369 38249 ft 430 kts 240°
2026-04-14 13:49 28.64566 -35.62113 38253 ft 430 kts 240°
2026-04-14 13:50 28.61286 -35.67820 38253 ft 430 kts 240°
2026-04-14 13:50 28.58004 -35.73522 38251 ft 430 kts 240°
2026-04-14 13:51 28.54719 -35.79223 38249 ft 430 kts 240°
2026-04-14 13:51 28.51429 -35.84926 38246 ft 430 kts 239°
2026-04-14 13:52 28.48139 -35.90620 38250 ft 430 kts 239°
2026-04-14 13:52 28.44869 -35.96272 38249 ft 430 kts 239°
2026-04-14 13:53 28.41574 -36.01960 38250 ft 430 kts 239°
2026-04-14 13:53 28.38267 -36.07660 38249 ft 430 kts 239°
2026-04-14 13:54 28.34965 -36.13346 38250 ft 431 kts 239°
2026-04-14 13:54 28.31660 -36.19027 38253 ft 431 kts 239°
2026-04-14 13:55 28.28352 -36.24706 38250 ft 431 kts 239°
2026-04-14 13:55 28.25043 -36.30380 38249 ft 431 kts 239°
2026-04-14 13:56 28.21730 -36.36053 38250 ft 431 kts 239°
2026-04-14 13:56 28.18398 -36.41752 38250 ft 431 kts 239°
2026-04-14 13:57 28.15104 -36.47378 38249 ft 431 kts 239°
2026-04-14 13:57 28.11777 -36.53051 38249 ft 432 kts 239°
2026-04-14 13:58 28.08440 -36.58735 38250 ft 432 kts 239°
2026-04-14 13:58 28.05111 -36.64398 38249 ft 431 kts 239°
2026-04-14 13:59 28.01780 -36.70057 38245 ft 431 kts 239°
2026-04-14 13:59 27.98447 -36.75711 38245 ft 431 kts 239°
2026-04-14 14:00 27.95116 -36.81355 38237 ft 431 kts 239°
2026-04-14 14:00 27.91784 -36.86993 38246 ft 431 kts 239°
2026-04-14 14:01 27.88447 -36.92631 38251 ft 431 kts 239°
2026-04-14 14:01 27.85111 -36.98264 38245 ft 431 kts 239°
2026-04-14 14:02 27.81770 -37.03894 38246 ft 431 kts 239°
2026-04-14 14:02 27.78428 -37.09520 38244 ft 431 kts 239°
2026-04-14 14:03 27.75082 -37.15147 38243 ft 431 kts 239°
2026-04-14 14:03 27.71734 -37.20768 38242 ft 431 kts 239°
2026-04-14 14:04 27.68380 -37.26392 38238 ft 431 kts 239°
2026-04-14 14:04 27.65026 -37.32008 38236 ft 431 kts 239°
2026-04-14 14:05 27.61668 -37.37625 38240 ft 432 kts 239°
2026-04-14 14:05 27.58326 -37.43208 38240 ft 432 kts 239°
2026-04-14 14:06 27.54959 -37.48825 38241 ft 432 kts 239°
2026-04-14 14:06 27.51588 -37.54441 38240 ft 432 kts 239°
2026-04-14 14:07 27.48213 -37.60057 38239 ft 433 kts 238°
2026-04-14 14:07 27.44833 -37.65674 38236 ft 433 kts 238°
2026-04-14 14:08 27.41443 -37.71301 38239 ft 433 kts 238°
2026-04-14 14:08 27.38054 -37.76918 38239 ft 433 kts 238°
2026-04-14 14:09 27.34668 -37.82525 38233 ft 433 kts 238°
2026-04-14 14:09 27.31271 -37.88141 38237 ft 434 kts 238°
2026-04-14 14:10 27.27860 -37.93774 38237 ft 434 kts 238°
2026-04-14 14:10 27.24458 -37.99384 38236 ft 434 kts 238°
2026-04-14 14:11 27.21050 -38.04997 38240 ft 434 kts 238°
2026-04-14 14:11 27.17638 -38.10611 38240 ft 435 kts 238°
2026-04-14 14:12 27.14223 -38.16221 38237 ft 435 kts 238°
2026-04-14 14:12 27.10801 -38.21837 38236 ft 435 kts 238°
2026-04-14 14:13 27.07954 -38.26502 38236 ft 436 kts 238°
2026-04-14 14:13 27.04525 -38.32115 38241 ft 436 kts 238°
2026-04-14 14:14 27.01087 -38.37737 38231 ft 436 kts 238°
2026-04-14 14:14 26.97644 -38.43358 38238 ft 437 kts 238°
2026-04-14 14:15 26.94186 -38.48999 38231 ft 437 kts 238°
2026-04-14 14:15 26.90733 -38.54624 38238 ft 438 kts 238°
2026-04-14 14:16 26.87248 -38.60294 38232 ft 438 kts 238°
2026-04-14 14:16 26.83779 -38.65929 38237 ft 438 kts 238°
2026-04-14 14:17 26.78574 -38.74374 38230 ft 439 kts 238°
2026-04-14 14:17 26.75096 -38.80006 38237 ft 439 kts 238°
2026-04-14 14:18 26.71639 -38.85598 38229 ft 440 kts 238°
2026-04-14 14:18 26.68154 -38.91230 38234 ft 440 kts 238°
2026-04-14 14:19 26.64659 -38.96868 38230 ft 441 kts 238°
2026-04-14 14:19 26.61162 -39.02505 38230 ft 441 kts 238°
2026-04-14 14:20 26.57659 -39.08142 38224 ft 441 kts 239°
2026-04-14 14:20 26.54150 -39.13784 38221 ft 442 kts 239°
2026-04-14 14:21 26.50634 -39.19429 38237 ft 442 kts 239°
2026-04-14 14:21 26.47116 -39.25070 38232 ft 443 kts 239°
2026-04-14 14:22 26.43593 -39.30712 38229 ft 443 kts 239°
2026-04-14 14:22 26.40061 -39.36362 38229 ft 443 kts 239°
2026-04-14 14:23 26.36529 -39.42005 38226 ft 443 kts 239°
2026-04-14 14:23 26.32981 -39.47666 38228 ft 444 kts 239°
2026-04-14 14:24 26.29438 -39.53314 38224 ft 444 kts 238°
2026-04-14 14:24 26.25892 -39.58958 38225 ft 444 kts 238°
2026-04-14 14:25 26.22346 -39.64597 38225 ft 444 kts 238°
2026-04-14 14:25 26.18815 -39.70204 38224 ft 445 kts 238°
2026-04-14 14:26 26.15234 -39.75885 38222 ft 445 kts 238°
2026-04-14 14:26 26.11698 -39.81487 38226 ft 445 kts 238°
2026-04-14 14:27 26.08134 -39.87130 38227 ft 445 kts 238°
2026-04-14 14:27 26.04567 -39.92769 38226 ft 445 kts 238°
2026-04-14 14:28 26.00989 -39.98400 38219 ft 446 kts 237°
2026-04-14 14:28 25.97095 -40.03795 38222 ft 448 kts 233°
2026-04-14 14:29 25.93070 -40.09087 38221 ft 448 kts 233°
2026-04-14 14:29 25.89030 -40.14396 38223 ft 448 kts 233°
2026-04-14 14:30 25.85002 -40.19684 38225 ft 448 kts 233°
2026-04-14 14:30 25.80971 -40.24971 38223 ft 448 kts 233°
2026-04-14 14:31 25.76939 -40.30253 38224 ft 448 kts 233°
2026-04-14 14:31 25.72908 -40.35528 38223 ft 448 kts 233°
2026-04-14 14:32 25.68870 -40.40806 38219 ft 448 kts 233°
2026-04-14 14:32 25.64838 -40.46071 38224 ft 448 kts 233°
2026-04-14 14:33 25.60799 -40.51338 38220 ft 448 kts 233°
2026-04-14 14:33 25.56764 -40.56595 38218 ft 447 kts 233°
2026-04-14 14:34 25.50709 -40.64471 38225 ft 447 kts 233°
2026-04-14 14:35 25.46671 -40.69716 38218 ft 447 kts 233°
2026-04-14 14:35 25.42637 -40.74950 38218 ft 447 kts 233°
2026-04-14 14:36 25.38604 -40.80177 38216 ft 446 kts 233°
2026-04-14 14:36 25.34571 -40.85398 38219 ft 446 kts 233°
2026-04-14 14:37 25.30535 -40.90617 38213 ft 446 kts 233°
2026-04-14 14:37 25.26532 -40.95788 38212 ft 445 kts 233°
2026-04-14 14:38 25.22473 -41.01026 38216 ft 445 kts 233°
2026-04-14 14:38 25.18468 -41.06187 38214 ft 445 kts 233°
2026-04-14 14:39 25.14435 -41.11379 38206 ft 445 kts 233°
2026-04-14 14:39 25.10402 -41.16564 38207 ft 445 kts 233°
2026-04-14 14:40 25.06481 -41.21602 38210 ft 444 kts 233°
2026-04-14 14:40 25.02449 -41.26776 38207 ft 444 kts 233°
2026-04-14 14:41 24.98419 -41.31941 38211 ft 444 kts 233°
2026-04-14 14:41 24.94390 -41.37099 38211 ft 443 kts 233°
2026-04-14 14:42 24.90352 -41.42264 38208 ft 443 kts 233°
2026-04-14 14:42 24.86327 -41.47407 38207 ft 443 kts 233°
2026-04-14 14:43 24.82303 -41.52541 38205 ft 442 kts 233°
2026-04-14 14:43 24.78281 -41.57668 38208 ft 442 kts 233°
2026-04-14 14:44 24.74257 -41.62792 38210 ft 442 kts 233°
2026-04-14 14:44 24.70235 -41.67908 38202 ft 441 kts 233°
2026-04-14 14:45 24.66216 -41.73014 38204 ft 441 kts 233°
2026-04-14 14:45 24.62222 -41.78083 38201 ft 441 kts 233°
2026-04-14 14:46 24.58200 -41.83183 38202 ft 441 kts 233°
2026-04-14 14:46 24.54177 -41.88277 38202 ft 441 kts 233°
2026-04-14 14:47 24.50154 -41.93367 38200 ft 441 kts 233°
2026-04-14 14:47 24.46134 -41.98449 38220 ft 440 kts 233°
2026-04-14 14:48 24.42113 -42.03525 38216 ft 440 kts 233°
2026-04-14 14:48 24.38093 -42.08596 38192 ft 440 kts 233°
2026-04-14 14:49 24.34071 -42.13663 38202 ft 440 kts 233°
2026-04-14 14:49 24.30048 -42.18726 38204 ft 439 kts 233°
2026-04-14 14:50 24.26029 -42.23779 38202 ft 439 kts 233°
2026-04-14 14:50 24.22009 -42.28827 38199 ft 439 kts 233°
2026-04-14 14:51 24.17993 -42.33866 38195 ft 438 kts 233°
2026-04-14 14:51 24.13976 -42.38900 38194 ft 438 kts 233°
2026-04-14 14:52 24.09966 -42.43921 38190 ft 437 kts 233°
2026-04-14 14:52 24.05963 -42.48928 38192 ft 437 kts 233°
2026-04-14 14:53 24.01960 -42.53928 38193 ft 436 kts 233°
2026-04-14 14:53 23.97962 -42.58919 38195 ft 435 kts 233°
2026-04-14 14:54 23.93967 -42.63901 38198 ft 435 kts 233°
2026-04-14 14:54 23.89975 -42.68874 38194 ft 434 kts 233°
2026-04-14 14:55 23.86012 -42.73805 38192 ft 434 kts 233°
2026-04-14 14:55 23.82023 -42.78763 38189 ft 434 kts 233°
2026-04-14 14:56 23.76045 -42.86186 38190 ft 433 kts 233°
2026-04-14 14:56 23.72063 -42.91123 38187 ft 433 kts 233°
2026-04-14 14:57 23.68086 -42.96048 38186 ft 432 kts 233°
2026-04-14 14:57 23.64107 -43.00972 38186 ft 432 kts 233°
2026-04-14 14:58 23.60134 -43.05884 38182 ft 431 kts 233°
2026-04-14 14:58 23.56163 -43.10789 38182 ft 431 kts 233°
2026-04-14 14:59 23.52193 -43.15686 38180 ft 430 kts 233°
2026-04-14 14:59 23.48230 -43.20571 38186 ft 430 kts 233°
2026-04-14 15:00 23.44269 -43.25448 38181 ft 429 kts 233°
2026-04-14 15:00 23.40312 -43.30316 38183 ft 429 kts 233°
2026-04-14 15:01 23.36355 -43.35180 38183 ft 429 kts 233°
2026-04-14 15:01 23.32425 -43.40005 38180 ft 429 kts 233°
2026-04-14 15:02 23.28465 -43.44862 38179 ft 428 kts 233°
2026-04-14 15:02 23.24510 -43.49708 38180 ft 428 kts 233°
2026-04-14 15:03 23.20551 -43.54555 38176 ft 428 kts 233°
2026-04-14 15:03 23.16593 -43.59395 38173 ft 428 kts 233°
2026-04-14 15:04 23.13304 -43.63414 38170 ft 428 kts 233°
2026-04-14 15:04 23.09347 -43.68245 38172 ft 427 kts 233°
2026-04-14 15:05 23.05394 -43.73066 38167 ft 427 kts 233°
2026-04-14 15:05 23.01440 -43.77884 38169 ft 427 kts 233°
2026-04-14 15:06 22.97484 -43.82699 38165 ft 427 kts 233°
2026-04-14 15:06 22.93532 -43.87506 38166 ft 426 kts 233°
2026-04-14 15:07 22.89586 -43.92300 38167 ft 426 kts 233°
2026-04-14 15:07 22.85638 -43.97092 38172 ft 425 kts 233°
2026-04-14 15:08 22.81691 -44.01879 38168 ft 425 kts 233°
2026-04-14 15:08 22.77757 -44.06645 38167 ft 424 kts 233°
2026-04-14 15:09 22.73819 -44.11411 38168 ft 423 kts 233°
2026-04-14 15:09 22.69894 -44.16158 38165 ft 423 kts 233°
2026-04-14 15:10 22.65967 -44.20902 38166 ft 422 kts 233°
2026-04-14 15:10 22.62049 -44.25633 38165 ft 421 kts 233°
2026-04-14 15:11 22.58159 -44.30324 38166 ft 421 kts 233°
2026-04-14 15:11 22.54219 -44.35071 38161 ft 420 kts 233°
2026-04-14 15:12 22.50316 -44.39769 38159 ft 419 kts 233°
2026-04-14 15:12 22.46416 -44.44460 38157 ft 419 kts 234°
2026-04-14 15:13 22.42547 -44.49109 38155 ft 418 kts 234°
2026-04-14 15:13 22.38659 -44.53777 38163 ft 417 kts 234°
2026-04-14 15:14 22.34776 -44.58435 38160 ft 416 kts 234°
2026-04-14 15:14 22.30894 -44.63087 38155 ft 416 kts 234°
2026-04-14 15:15 22.27018 -44.67730 38157 ft 416 kts 234°
2026-04-14 15:15 22.23142 -44.72367 38160 ft 415 kts 234°
2026-04-14 15:16 22.19271 -44.76995 38161 ft 415 kts 234°
2026-04-14 15:16 22.15400 -44.81620 38151 ft 414 kts 234°
2026-04-14 15:17 22.11535 -44.86235 38147 ft 414 kts 234°
2026-04-14 15:17 22.07669 -44.90847 38165 ft 414 kts 234°
2026-04-14 15:18 22.03798 -44.95445 38156 ft 414 kts 233°
2026-04-14 15:18 21.99643 -44.99794 38151 ft 418 kts 229°
2026-04-14 15:19 21.95081 -45.03745 38151 ft 423 kts 224°
2026-04-14 15:19 21.90297 -45.07458 38150 ft 423 kts 224°
2026-04-14 15:20 21.85518 -45.11163 38150 ft 423 kts 224°
2026-04-14 15:20 21.80734 -45.14864 38149 ft 423 kts 223°
2026-04-14 15:21 21.75948 -45.18560 38147 ft 423 kts 224°
2026-04-14 15:21 21.71193 -45.22229 38146 ft 423 kts 224°
2026-04-14 15:22 21.66406 -45.25920 38143 ft 423 kts 224°
2026-04-14 15:22 21.61615 -45.29609 38142 ft 423 kts 224°
2026-04-14 15:23 21.56986 -45.33171 38141 ft 423 kts 224°
2026-04-14 15:23 21.52195 -45.36855 38137 ft 423 kts 224°
2026-04-14 15:24 21.47405 -45.40535 38133 ft 423 kts 224°
2026-04-14 15:24 21.42612 -45.44213 38135 ft 423 kts 224°
2026-04-14 15:25 21.37820 -45.47889 38136 ft 423 kts 224°
2026-04-14 15:25 21.33029 -45.51561 38137 ft 423 kts 224°
2026-04-14 15:26 21.28238 -45.55229 38137 ft 423 kts 223°
2026-04-14 15:26 21.23448 -45.58894 38135 ft 423 kts 223°
2026-04-14 15:27 21.18661 -45.62554 38135 ft 423 kts 223°
2026-04-14 15:27 21.13870 -45.66213 38138 ft 423 kts 224°
2026-04-14 15:28 21.09079 -45.69870 38132 ft 423 kts 223°
2026-04-14 15:28 21.04289 -45.73523 38122 ft 422 kts 223°
2026-04-14 15:29 20.99499 -45.77173 38125 ft 422 kts 224°
2026-04-14 15:29 20.94713 -45.80816 38127 ft 422 kts 224°
2026-04-14 15:30 20.89925 -45.84459 38123 ft 422 kts 224°
2026-04-14 15:30 20.85173 -45.88071 38121 ft 422 kts 224°
2026-04-14 15:31 20.80357 -45.91729 38133 ft 422 kts 224°
2026-04-14 15:31 20.75604 -45.95336 38121 ft 421 kts 224°
2026-04-14 15:32 20.70823 -45.98962 38121 ft 421 kts 224°
2026-04-14 15:32 20.66040 -46.02587 38120 ft 421 kts 224°
2026-04-14 15:33 20.61261 -46.06206 38123 ft 421 kts 224°
2026-04-14 15:33 20.56477 -46.09825 38130 ft 421 kts 224°
2026-04-14 15:34 20.51698 -46.13437 38130 ft 421 kts 224°
2026-04-14 15:34 20.46918 -46.17048 38110 ft 421 kts 224°
2026-04-14 15:35 20.42141 -46.20654 38122 ft 421 kts 224°
2026-04-14 15:35 20.37363 -46.24258 38120 ft 420 kts 224°
2026-04-14 15:36 20.32583 -46.27861 38113 ft 420 kts 224°
2026-04-14 15:36 20.27803 -46.31460 38115 ft 420 kts 224°
2026-04-14 15:37 20.23028 -46.35054 38113 ft 420 kts 224°
2026-04-14 15:37 20.18246 -46.38649 38112 ft 420 kts 224°
2026-04-14 15:38 20.13498 -46.42217 38115 ft 420 kts 224°
2026-04-14 15:38 20.08687 -46.45829 38111 ft 420 kts 224°
2026-04-14 15:39 20.03937 -46.49392 38110 ft 420 kts 224°
2026-04-14 15:39 19.99157 -46.52976 38110 ft 420 kts 223°
2026-04-14 15:40 19.94372 -46.56559 38107 ft 420 kts 223°
2026-04-14 15:40 19.89587 -46.60141 38107 ft 420 kts 223°
2026-04-14 15:41 19.84803 -46.63719 38103 ft 421 kts 223°
2026-04-14 15:41 19.80012 -46.67300 38102 ft 421 kts 223°
2026-04-14 15:42 19.75225 -46.70875 38103 ft 420 kts 223°
2026-04-14 15:42 19.70436 -46.74448 38101 ft 421 kts 223°
2026-04-14 15:43 19.65645 -46.78020 38099 ft 421 kts 223°
2026-04-14 15:43 19.60856 -46.81589 38100 ft 421 kts 223°
2026-04-14 15:44 19.56066 -46.85156 38104 ft 421 kts 223°
2026-04-14 15:44 19.51276 -46.88720 38099 ft 420 kts 223°
2026-04-14 15:45 19.46481 -46.92285 38096 ft 421 kts 223°
2026-04-14 15:45 19.41691 -46.95843 38096 ft 421 kts 223°
2026-04-14 15:46 19.36926 -46.99381 38093 ft 421 kts 223°
2026-04-14 15:46 19.32127 -47.02941 38094 ft 421 kts 223°
2026-04-14 15:47 19.27337 -47.06492 38092 ft 420 kts 223°
2026-04-14 15:47 19.22539 -47.10046 38089 ft 420 kts 223°
2026-04-14 15:48 19.17744 -47.13595 38091 ft 420 kts 223°
2026-04-14 15:48 19.12947 -47.17144 38090 ft 420 kts 223°
2026-04-14 15:49 19.08150 -47.20689 38092 ft 421 kts 223°
2026-04-14 15:49 19.03351 -47.24234 38089 ft 421 kts 223°
2026-04-14 15:50 18.98554 -47.27775 38088 ft 421 kts 223°
2026-04-14 15:50 18.93751 -47.31318 38087 ft 421 kts 223°
2026-04-14 15:51 18.88950 -47.34856 38088 ft 421 kts 223°
2026-04-14 15:51 18.84149 -47.38392 38082 ft 421 kts 223°
2026-04-14 15:52 18.79341 -47.41931 38083 ft 421 kts 223°
2026-04-14 15:52 18.74538 -47.45463 38083 ft 421 kts 223°
2026-04-14 15:53 18.70537 -47.48404 38082 ft 421 kts 223°
2026-04-14 15:53 18.65733 -47.51933 38078 ft 421 kts 223°
2026-04-14 15:54 18.58518 -47.57228 38084 ft 421 kts 223°
2026-04-14 15:55 18.53705 -47.60757 38080 ft 421 kts 223°
2026-04-14 15:55 18.48891 -47.64285 38077 ft 421 kts 223°
2026-04-14 15:56 18.44079 -47.67808 38079 ft 421 kts 223°
2026-04-14 15:56 18.39297 -47.71308 38073 ft 421 kts 223°
2026-04-14 15:57 18.34449 -47.74853 38075 ft 421 kts 223°
2026-04-14 15:57 18.29659 -47.78354 38071 ft 422 kts 223°
2026-04-14 15:58 18.24838 -47.81875 38066 ft 422 kts 223°
2026-04-14 15:58 18.20021 -47.85391 38068 ft 422 kts 223°
2026-04-14 15:59 18.15184 -47.88920 38071 ft 422 kts 223°
2026-04-14 15:59 18.10312 -47.92474 38519 ft 425 kts 223°
2026-04-14 15:59 18.07889 -47.94237 38904 ft 423 kts 223°
2026-04-14 16:00 18.05481 -47.95992 39199 ft 421 kts 223°
2026-04-14 16:00 18.03069 -47.97748 39452 ft 421 kts 223°
2026-04-14 16:00 18.00658 -47.99505 39685 ft 421 kts 223°
2026-04-14 16:00 17.98227 -48.01230 39910 ft 422 kts 221°
2026-04-14 16:01 17.95757 -48.02907 40061 ft 423 kts 221°
2026-04-14 16:01 17.90802 -48.06243 40060 ft 423 kts 221°
2026-04-14 16:02 17.85849 -48.09587 40058 ft 423 kts 221°
2026-04-14 16:02 17.80897 -48.12937 40060 ft 423 kts 221°
2026-04-14 16:03 17.75946 -48.16289 40057 ft 423 kts 221°
2026-04-14 16:03 17.70993 -48.19642 40059 ft 424 kts 221°
2026-04-14 16:04 17.66038 -48.22995 40054 ft 423 kts 221°
2026-04-14 16:04 17.61088 -48.26342 40053 ft 423 kts 221°
2026-04-14 16:05 17.56129 -48.29694 40056 ft 424 kts 221°
2026-04-14 16:05 17.51171 -48.33042 40056 ft 424 kts 221°
2026-04-14 16:06 17.46208 -48.36392 40057 ft 424 kts 221°
2026-04-14 16:06 17.41243 -48.39741 40054 ft 425 kts 221°
2026-04-14 16:07 17.36308 -48.43067 40055 ft 425 kts 221°
2026-04-14 16:07 17.31334 -48.46418 40051 ft 425 kts 221°
2026-04-14 16:08 17.26358 -48.49767 40053 ft 425 kts 221°
2026-04-14 16:08 17.21380 -48.53117 40047 ft 425 kts 221°
2026-04-14 16:09 17.16397 -48.56467 40048 ft 426 kts 221°
2026-04-14 16:09 17.11404 -48.59821 40048 ft 426 kts 221°
2026-04-14 16:10 17.06411 -48.63174 40048 ft 426 kts 221°
2026-04-14 16:10 17.01417 -48.66525 40057 ft 427 kts 221°
2026-04-14 16:11 16.96417 -48.69878 40037 ft 427 kts 221°
2026-04-14 16:11 16.91415 -48.73230 40050 ft 427 kts 221°
2026-04-14 16:12 16.86409 -48.76582 40040 ft 427 kts 220°
2026-04-14 16:12 16.81404 -48.79933 40040 ft 428 kts 220°
2026-04-14 16:13 16.76388 -48.83287 40042 ft 428 kts 220°
2026-04-14 16:13 16.71369 -48.86642 40037 ft 428 kts 220°
2026-04-14 16:14 16.66348 -48.89996 40036 ft 428 kts 220°
2026-04-14 16:14 16.61325 -48.93350 40035 ft 429 kts 220°
2026-04-14 16:15 16.56299 -48.96703 40037 ft 429 kts 220°
2026-04-14 16:15 16.51267 -49.00057 40035 ft 429 kts 220°
2026-04-14 16:16 16.46237 -49.03409 40033 ft 429 kts 220°
2026-04-14 16:16 16.41203 -49.06762 40038 ft 429 kts 220°
2026-04-14 16:17 16.36160 -49.10118 40036 ft 430 kts 220°
2026-04-14 16:17 16.31117 -49.13472 40034 ft 430 kts 220°
2026-04-14 16:18 16.26103 -49.16805 40033 ft 430 kts 220°
2026-04-14 16:18 16.21053 -49.20159 40030 ft 431 kts 220°
2026-04-14 16:19 16.16001 -49.23513 40029 ft 431 kts 220°
2026-04-14 16:19 16.10938 -49.26872 40029 ft 431 kts 220°
2026-04-14 16:20 16.05882 -49.30224 40027 ft 431 kts 220°
2026-04-14 16:20 16.00815 -49.33582 40029 ft 432 kts 220°
2026-04-14 16:21 15.95745 -49.36939 40024 ft 432 kts 220°
2026-04-14 16:21 15.90678 -49.40293 40027 ft 432 kts 220°
2026-04-14 16:22 15.85607 -49.43647 40025 ft 432 kts 220°
2026-04-14 16:22 15.80536 -49.46999 40024 ft 432 kts 219°
2026-04-14 16:23 15.75463 -49.50350 40021 ft 432 kts 219°
2026-04-14 16:23 15.70384 -49.53704 40022 ft 432 kts 219°
2026-04-14 16:24 15.65305 -49.57055 40014 ft 433 kts 219°
2026-04-14 16:24 15.60223 -49.60407 40016 ft 433 kts 219°
2026-04-14 16:25 15.55134 -49.63761 40014 ft 433 kts 219°
2026-04-14 16:25 15.50047 -49.67112 40016 ft 433 kts 219°
2026-04-14 16:26 15.44955 -49.70464 40015 ft 433 kts 219°
2026-04-14 16:26 15.39858 -49.73818 40016 ft 434 kts 219°
2026-04-14 16:27 15.34798 -49.77145 40011 ft 434 kts 219°
2026-04-14 16:27 15.29691 -49.80502 40010 ft 434 kts 219°
2026-04-14 16:28 15.24589 -49.83854 40009 ft 434 kts 219°
2026-04-14 16:28 15.19479 -49.87209 40014 ft 435 kts 219°
2026-04-14 16:29 15.14368 -49.90564 40010 ft 435 kts 219°
2026-04-14 16:29 15.09258 -49.93918 40020 ft 435 kts 219°
2026-04-14 16:30 15.04139 -49.97274 40012 ft 435 kts 219°
2026-04-14 16:30 14.98960 -50.00544 40011 ft 438 kts 216°
2026-04-14 16:31 14.93577 -50.03534 40009 ft 439 kts 215°
2026-04-14 16:31 14.88184 -50.06520 40006 ft 440 kts 215°
2026-04-14 16:32 14.82788 -50.09506 40000 ft 440 kts 215°
2026-04-14 16:32 14.77390 -50.12494 39998 ft 440 kts 215°
2026-04-14 16:33 14.71986 -50.15483 40001 ft 440 kts 215°
2026-04-14 16:33 14.66580 -50.18471 40002 ft 441 kts 215°
2026-04-14 16:34 14.61173 -50.21459 40000 ft 441 kts 214°
2026-04-14 16:34 14.55756 -50.24450 39997 ft 441 kts 214°
2026-04-14 16:35 14.50341 -50.27438 39994 ft 441 kts 214°
2026-04-14 16:35 14.44922 -50.30428 39993 ft 442 kts 214°
2026-04-14 16:36 14.39499 -50.33417 39993 ft 442 kts 214°
2026-04-14 16:36 14.34117 -50.36372 40002 ft 440 kts 215°
2026-04-14 16:37 14.28714 -50.39348 39997 ft 440 kts 215°
2026-04-14 16:37 14.23310 -50.42324 39991 ft 440 kts 215°
2026-04-14 16:38 14.17903 -50.45298 39992 ft 440 kts 215°
2026-04-14 16:38 14.12493 -50.48273 39994 ft 441 kts 215°
2026-04-14 16:39 14.07079 -50.51248 39987 ft 441 kts 215°
2026-04-14 16:39 14.01661 -50.54224 39986 ft 441 kts 215°
2026-04-14 16:40 13.96246 -50.57196 39986 ft 441 kts 215°
2026-04-14 16:40 13.90816 -50.60175 39987 ft 442 kts 215°
2026-04-14 16:41 13.85396 -50.63147 39985 ft 442 kts 215°
2026-04-14 16:41 13.79967 -50.66122 39984 ft 442 kts 215°
2026-04-14 16:42 13.74532 -50.69098 39985 ft 442 kts 214°
2026-04-14 16:42 13.70017 -50.71570 39983 ft 442 kts 214°
2026-04-14 16:43 13.64580 -50.74545 39980 ft 442 kts 214°
2026-04-14 16:43 13.59147 -50.77516 39979 ft 442 kts 214°
2026-04-14 16:44 13.53708 -50.80489 39982 ft 443 kts 214°
2026-04-14 16:44 13.48267 -50.83461 39980 ft 443 kts 214°
2026-04-14 16:45 13.40100 -50.87921 39974 ft 443 kts 214°
2026-04-14 16:45 13.34658 -50.90890 39974 ft 443 kts 214°
2026-04-14 16:46 13.29246 -50.93842 39972 ft 443 kts 214°
2026-04-14 16:46 13.23793 -50.96814 39973 ft 444 kts 214°
2026-04-14 16:47 13.18343 -50.99782 39973 ft 444 kts 214°
2026-04-14 16:47 13.12886 -51.02754 39973 ft 444 kts 214°
2026-04-14 16:48 13.07428 -51.05724 39970 ft 444 kts 214°
2026-04-14 16:48 13.01969 -51.08694 39966 ft 444 kts 214°
2026-04-14 16:49 12.96506 -51.11664 39972 ft 445 kts 214°
2026-04-14 16:49 12.91035 -51.14637 39965 ft 445 kts 214°
2026-04-14 16:50 12.85568 -51.17606 39970 ft 445 kts 214°
2026-04-14 16:50 12.80082 -51.20584 39964 ft 445 kts 214°
2026-04-14 16:51 12.74607 -51.23555 39970 ft 445 kts 214°
2026-04-14 16:51 12.69126 -51.26527 39965 ft 446 kts 214°
2026-04-14 16:52 12.63642 -51.29500 39965 ft 446 kts 214°
2026-04-14 16:52 12.58195 -51.32451 39965 ft 446 kts 213°
2026-04-14 16:53 12.52704 -51.35425 39965 ft 447 kts 213°
2026-04-14 16:53 12.47211 -51.38398 39961 ft 447 kts 213°
2026-04-14 16:54 12.41710 -51.41374 39963 ft 447 kts 213°
2026-04-14 16:54 12.36209 -51.44349 39960 ft 447 kts 213°
2026-04-14 16:55 12.30704 -51.47324 39963 ft 447 kts 213°
2026-04-14 16:55 12.25196 -51.50300 39961 ft 448 kts 213°
2026-04-14 16:56 12.19679 -51.53279 39959 ft 448 kts 213°
2026-04-14 16:56 12.15630 -51.55464 39959 ft 448 kts 213°
2026-04-14 16:57 12.10099 -51.58448 39956 ft 449 kts 213°
2026-04-14 16:57 12.04575 -51.61427 39956 ft 449 kts 213°
2026-04-14 16:58 11.99045 -51.64408 39957 ft 449 kts 213°
2026-04-14 16:58 11.93546 -51.67371 39953 ft 449 kts 213°
2026-04-14 16:59 11.87974 -51.70371 39953 ft 450 kts 213°
2026-04-14 16:59 11.82474 -51.73332 39951 ft 450 kts 213°
2026-04-14 17:00 11.76932 -51.76313 39951 ft 450 kts 213°
2026-04-14 17:00 11.71385 -51.79296 39954 ft 450 kts 213°
2026-04-14 17:01 11.65837 -51.82279 39954 ft 451 kts 213°
2026-04-14 17:01 11.60280 -51.85265 39951 ft 451 kts 213°
2026-04-14 17:02 11.54719 -51.88252 39954 ft 452 kts 213°
2026-04-14 17:02 11.49153 -51.91239 39949 ft 452 kts 213°
2026-04-14 17:03 11.43583 -51.94228 39946 ft 452 kts 213°
2026-04-14 17:03 11.38011 -51.97216 39947 ft 452 kts 213°
2026-04-14 17:04 11.32437 -52.00204 39946 ft 453 kts 213°
2026-04-14 17:04 11.26859 -52.03193 39943 ft 453 kts 213°
2026-04-14 17:05 11.21280 -52.06180 39944 ft 453 kts 213°
2026-04-14 17:05 11.15701 -52.09168 39940 ft 453 kts 212°
2026-04-14 17:06 11.10112 -52.12159 39937 ft 454 kts 212°
2026-04-14 17:06 11.04523 -52.15149 39934 ft 454 kts 212°
2026-04-14 17:07 10.98925 -52.18143 39936 ft 454 kts 212°
2026-04-14 17:07 10.93328 -52.21134 39936 ft 454 kts 212°
2026-04-14 17:08 10.87757 -52.24110 39933 ft 455 kts 212°
2026-04-14 17:08 10.82116 -52.27122 39933 ft 455 kts 212°
2026-04-14 17:09 10.76532 -52.30103 39931 ft 455 kts 212°
2026-04-14 17:09 10.70926 -52.33094 39929 ft 455 kts 212°
2026-04-14 17:10 10.65314 -52.36087 39931 ft 455 kts 212°
2026-04-14 17:10 10.59696 -52.39082 39930 ft 456 kts 212°
2026-04-14 17:11 10.54076 -52.42077 39928 ft 456 kts 212°
2026-04-14 17:11 10.48454 -52.45071 39919 ft 456 kts 212°
2026-04-14 17:12 10.42828 -52.48067 39923 ft 456 kts 212°
2026-04-14 17:12 10.37197 -52.51064 39925 ft 457 kts 212°
2026-04-14 17:13 10.31567 -52.54059 39926 ft 457 kts 212°
2026-04-14 17:13 10.25937 -52.57053 39922 ft 457 kts 212°
2026-04-14 17:14 10.20310 -52.60044 39922 ft 456 kts 212°
2026-04-14 17:14 10.14681 -52.63035 39920 ft 456 kts 212°
2026-04-14 17:15 10.09051 -52.66025 39922 ft 456 kts 212°
2026-04-14 17:15 10.03409 -52.69021 39920 ft 456 kts 212°
2026-04-14 17:16 9.97783 -52.72008 39918 ft 456 kts 212°
2026-04-14 17:16 9.92159 -52.74992 39916 ft 456 kts 212°
2026-04-14 17:17 9.86534 -52.77975 39913 ft 456 kts 212°
2026-04-14 17:17 9.80912 -52.80956 39914 ft 456 kts 212°
2026-04-14 17:18 9.75290 -52.83936 39918 ft 456 kts 212°
2026-04-14 17:18 9.69710 -52.86892 39916 ft 456 kts 212°
2026-04-14 17:19 9.64088 -52.89871 39915 ft 456 kts 212°
2026-04-14 17:19 9.58466 -52.92850 39911 ft 456 kts 212°
2026-04-14 17:20 9.52844 -52.95829 39909 ft 456 kts 212°
2026-04-14 17:20 9.47218 -52.98808 39910 ft 456 kts 212°
2026-04-14 17:21 9.41567 -53.01761 39907 ft 457 kts 211°
2026-04-14 17:21 9.35894 -53.04671 39910 ft 457 kts 211°
2026-04-14 17:22 9.30223 -53.07584 39906 ft 457 kts 211°
2026-04-14 17:22 9.24550 -53.10504 39905 ft 457 kts 211°
2026-04-14 17:23 9.18881 -53.13423 39907 ft 457 kts 211°
2026-04-14 17:23 9.13208 -53.16343 39909 ft 457 kts 211°
2026-04-14 17:24 9.07531 -53.19265 39899 ft 458 kts 211°
2026-04-14 17:24 9.01856 -53.22185 39901 ft 458 kts 211°
2026-04-14 17:25 8.96163 -53.25114 39897 ft 458 kts 211°
2026-04-14 17:25 8.90488 -53.28032 39898 ft 458 kts 211°
2026-04-14 17:26 8.84848 -53.30931 39895 ft 458 kts 211°
2026-04-14 17:26 8.79128 -53.33871 39894 ft 458 kts 211°
2026-04-14 17:27 8.73445 -53.36790 39897 ft 458 kts 211°
2026-04-14 17:27 8.67764 -53.39707 39892 ft 458 kts 211°
2026-04-14 17:28 8.62100 -53.42615 39890 ft 458 kts 211°
2026-04-14 17:28 8.56391 -53.45544 39889 ft 458 kts 211°
2026-04-14 17:29 8.50701 -53.48462 39889 ft 459 kts 211°
2026-04-14 17:29 8.44996 -53.51388 39889 ft 459 kts 211°
2026-04-14 17:30 8.39299 -53.54308 39889 ft 459 kts 211°
2026-04-14 17:30 8.33589 -53.57235 39890 ft 459 kts 211°
2026-04-14 17:31 8.27894 -53.60152 39889 ft 459 kts 211°
2026-04-14 17:31 8.22197 -53.63070 39886 ft 459 kts 211°
2026-04-14 17:32 8.16490 -53.65992 39888 ft 459 kts 211°
2026-04-14 17:32 8.10793 -53.68908 39886 ft 459 kts 211°
2026-04-14 17:33 8.06023 -53.71349 39885 ft 459 kts 211°
2026-04-14 17:34 7.97512 -53.75702 39885 ft 459 kts 211°
2026-04-14 17:34 7.91817 -53.78614 39884 ft 459 kts 210°
2026-04-14 17:35 7.86116 -53.81528 39881 ft 459 kts 210°
2026-04-14 17:35 7.80421 -53.84439 39881 ft 459 kts 210°
2026-04-14 17:36 7.74728 -53.87349 39882 ft 459 kts 210°
2026-04-14 17:36 7.69034 -53.90258 39881 ft 459 kts 210°
2026-04-14 17:37 7.63342 -53.93166 39879 ft 459 kts 210°
2026-04-14 17:37 7.57647 -53.96078 39879 ft 458 kts 210°
2026-04-14 17:38 7.51959 -53.98982 39878 ft 459 kts 210°
2026-04-14 17:38 7.46343 -54.02028 39876 ft 458 kts 212°
2026-04-14 17:39 7.40777 -54.05158 39876 ft 458 kts 212°
2026-04-14 17:39 7.35219 -54.08289 39876 ft 458 kts 212°
2026-04-14 17:40 7.29657 -54.11423 39878 ft 458 kts 212°
2026-04-14 17:40 7.24095 -54.14555 39875 ft 458 kts 212°
2026-04-14 17:41 7.18547 -54.17678 39702 ft 455 kts 212°
2026-04-14 17:41 7.15782 -54.19236 38716 ft 457 kts 212°
2026-04-14 17:41 7.12977 -54.20820 37165 ft 466 kts 211°
2026-04-14 17:41 7.10130 -54.22429 35747 ft 472 kts 211°
2026-04-14 17:42 7.07249 -54.24054 34366 ft 477 kts 210°
2026-04-14 17:42 7.04334 -54.25694 33402 ft 477 kts 210°
2026-04-14 17:42 7.01491 -54.27289 32882 ft 473 kts 210°
2026-04-14 17:42 6.98617 -54.28901 32254 ft 472 kts 210°
2026-04-14 17:43 6.95707 -54.30536 31591 ft 472 kts 210°
2026-04-14 17:43 6.92836 -54.32148 30918 ft 473 kts 210°
2026-04-14 17:43 6.89992 -54.33747 30244 ft 474 kts 210°
2026-04-14 17:43 6.87105 -54.35369 29471 ft 476 kts 209°
2026-04-14 17:44 6.84210 -54.36994 28697 ft 477 kts 209°
2026-04-14 17:44 6.81314 -54.38619 27920 ft 477 kts 210°
2026-04-14 17:44 6.78395 -54.40258 27158 ft 477 kts 210°
2026-04-14 17:44 6.75515 -54.41876 26661 ft 471 kts 210°
2026-04-14 17:45 6.72665 -54.43477 26089 ft 467 kts 210°
2026-04-14 17:45 6.69842 -54.45063 25577 ft 463 kts 210°
2026-04-14 17:45 6.67035 -54.46640 25015 ft 460 kts 210°
2026-04-14 17:45 6.64256 -54.48202 24492 ft 456 kts 210°
2026-04-14 17:46 6.61493 -54.49754 23998 ft 452 kts 210°
2026-04-14 17:46 6.58761 -54.51287 23517 ft 448 kts 210°
2026-04-14 17:46 6.56049 -54.52811 22963 ft 444 kts 210°
2026-04-14 17:46 6.53361 -54.54320 22457 ft 439 kts 210°
2026-04-14 17:47 6.50707 -54.55810 21978 ft 434 kts 210°
2026-04-14 17:47 6.48085 -54.57281 21505 ft 430 kts 210°
2026-04-14 17:47 6.45486 -54.58740 21047 ft 425 kts 210°
2026-04-14 17:47 6.42913 -54.60184 20576 ft 421 kts 210°
2026-04-14 17:48 6.40366 -54.61613 20118 ft 418 kts 210°
2026-04-14 17:48 6.37831 -54.63036 19658 ft 415 kts 210°
2026-04-14 17:48 6.35322 -54.64444 19197 ft 412 kts 210°
2026-04-14 17:48 6.32820 -54.65847 18747 ft 409 kts 210°
2026-04-14 17:49 6.30339 -54.67239 18287 ft 407 kts 210°
2026-04-14 17:49 6.27862 -54.68630 17793 ft 405 kts 210°
2026-04-14 17:49 6.25443 -54.69988 17303 ft 402 kts 210°
2026-04-14 17:49 6.22981 -54.71371 16858 ft 398 kts 210°
2026-04-14 17:50 6.20604 -54.72705 16425 ft 395 kts 209°
2026-04-14 17:50 6.18209 -54.74049 15975 ft 393 kts 209°
2026-04-14 17:50 6.15825 -54.75386 15514 ft 391 kts 209°
2026-04-14 17:50 6.13418 -54.76737 15064 ft 390 kts 209°
2026-04-14 17:51 6.11080 -54.78048 14591 ft 389 kts 208°
2026-04-14 17:51 6.08716 -54.79373 14119 ft 389 kts 208°
2026-04-14 17:51 6.06351 -54.80699 13626 ft 389 kts 208°
2026-04-14 17:51 6.03997 -54.82036 13097 ft 388 kts 210°
2026-04-14 17:52 6.01796 -54.83617 12585 ft 386 kts 219°
2026-04-14 17:52 5.99861 -54.85478 12161 ft 383 kts 227°
2026-04-14 17:52 5.98136 -54.87506 11727 ft 380 kts 229°
2026-04-14 17:52 5.96463 -54.89555 11269 ft 377 kts 230°
2026-04-14 17:53 5.94810 -54.91588 10861 ft 374 kts 229°
2026-04-14 17:53 5.93189 -54.93575 10708 ft 360 kts 229°
2026-04-14 17:53 5.91626 -54.95487 10565 ft 347 kts 229°
2026-04-14 17:53 5.90099 -54.97348 10434 ft 335 kts 229°
2026-04-14 17:54 5.88645 -54.99119 10298 ft 323 kts 229°
2026-04-14 17:54 5.87240 -55.00828 10192 ft 311 kts 229°
2026-04-14 17:54 5.85884 -55.02478 10096 ft 300 kts 229°
2026-04-14 17:54 5.84579 -55.04064 9993 ft 290 kts 229°
2026-04-14 17:55 5.83307 -55.05609 9908 ft 284 kts 229°
2026-04-14 17:55 5.82045 -55.07141 9595 ft 285 kts 229°
2026-04-14 17:55 5.80772 -55.08685 9247 ft 285 kts 229°
2026-04-14 17:55 5.79513 -55.10216 8930 ft 283 kts 229°
2026-04-14 17:56 5.78262 -55.11735 8634 ft 282 kts 229°
2026-04-14 17:56 5.77009 -55.13255 8333 ft 282 kts 229°
2026-04-14 17:56 5.75762 -55.14768 8049 ft 281 kts 229°
2026-04-14 17:56 5.74517 -55.16280 7739 ft 280 kts 229°
2026-04-14 17:57 5.73278 -55.17784 7449 ft 279 kts 229°
2026-04-14 17:57 5.72045 -55.19282 7151 ft 278 kts 229°
2026-04-14 17:57 5.70797 -55.20797 6852 ft 278 kts 229°
2026-04-14 17:57 5.69567 -55.22291 6554 ft 277 kts 229°
2026-04-14 17:58 5.68343 -55.23779 6256 ft 276 kts 229°
2026-04-14 17:58 5.67121 -55.25263 5952 ft 275 kts 229°
2026-04-14 17:58 5.65903 -55.26742 5648 ft 274 kts 229°
2026-04-14 17:58 5.64695 -55.28209 5334 ft 270 kts 229°
2026-04-14 17:59 5.63506 -55.29649 5058 ft 265 kts 229°
2026-04-14 17:59 5.62332 -55.31072 4807 ft 264 kts 229°
2026-04-14 17:59 5.61071 -55.32399 4487 ft 263 kts 212°
2026-04-14 17:59 5.59388 -55.33060 4176 ft 259 kts 191°
2026-04-14 18:00 5.57621 -55.33414 3867 ft 259 kts 189°
2026-04-14 18:00 5.55845 -55.33755 3594 ft 261 kts 189°
2026-04-14 18:00 5.52448 -55.35057 3016 ft 264 kts 203°
2026-04-14 18:01 5.50802 -55.35753 3000 ft 249 kts 199°
2026-04-14 18:01 5.49203 -55.36264 2989 ft 234 kts 193°
2026-04-14 18:01 5.47649 -55.36473 2931 ft 219 kts 166°
2026-04-14 18:01 5.46407 -55.35805 2890 ft 194 kts 129°
2026-04-14 18:02 5.45681 -55.34733 2771 ft 181 kts 112°
2026-04-14 18:02 5.45318 -55.33554 2588 ft 174 kts 97°
2026-04-14 18:02 5.45214 -55.32370 2334 ft 166 kts 88°
2026-04-14 18:02 5.45204 -55.31249 2085 ft 158 kts 87°
2026-04-14 18:03 5.45214 -55.30144 1908 ft 158 kts 87°
2026-04-14 18:03 5.45225 -55.29040 1739 ft 157 kts 86°
2026-04-14 18:03 5.45233 -55.27951 1560 ft 154 kts 86°
2026-04-14 18:03 5.45240 -55.26881 1336 ft 153 kts 87°
2026-04-14 18:04 5.45243 -55.25814 1134 ft 152 kts 86°
2026-04-14 18:04 5.45250 -55.24751 988 ft 153 kts 87°
2026-04-14 18:04 5.45256 -55.23682 767 ft 152 kts 89°
2026-04-14 18:04 5.45262 -55.22624 537 ft 151 kts 91°
2026-04-14 18:05 5.45276 -55.21564 418 ft 151 kts 91°
2026-04-14 18:05 5.45270 -55.20518 154 ft 146 kts 89°
2026-04-14 18:05 5.45282 -55.19563 67 ft 115 kts 90°
2026-04-14 18:05 5.45287 -55.18960 63 ft 62 kts 89°
2026-04-14 18:06 5.45291 -55.18539 66 ft 58 kts 89°
2026-04-14 18:06 5.45292 -55.18149 70 ft 54 kts 90°
2026-04-14 18:06 5.45294 -55.17782 73 ft 51 kts 89°
2026-04-14 18:06 5.45299 -55.17523 65 ft 27 kts 79°
2026-04-14 18:07 5.45418 -55.17378 60 ft 28 kts 47°
2026-04-14 18:07 5.45441 -55.17252 62 ft 17 kts 134°
2026-04-14 18:07 5.45324 -55.17226 63 ft 20 kts 206°
2026-04-14 18:07 5.45298 -55.17357 63 ft 20 kts 269°
2026-04-14 18:08 5.45297 -55.17506 66 ft 22 kts 269°
2026-04-14 18:08 5.45295 -55.17672 66 ft 25 kts 269°
2026-04-14 18:08 5.45293 -55.17856 74 ft 27 kts 269°
2026-04-14 18:08 5.45292 -55.18057 72 ft 30 kts 269°
2026-04-14 18:09 5.45290 -55.18280 63 ft 33 kts 269°
2026-04-14 18:09 5.45288 -55.18518 61 ft 35 kts 269°
2026-04-14 18:09 5.45286 -55.18769 59 ft 36 kts 269°
2026-04-14 18:09 5.45285 -55.19021 63 ft 36 kts 270°
2026-04-14 18:10 5.45285 -55.19273 65 ft 36 kts 270°
2026-04-14 18:10 5.45284 -55.19523 67 ft 36 kts 270°
2026-04-14 18:10 5.45305 -55.19697 65 ft 19 kts 318°
2026-04-14 18:10 5.45414 -55.19737 72 ft 12 kts 327°
2026-04-14 18:11 5.45451 -55.19799 70 ft 7 kts 331°
2026-04-14 18:11 5.45467 -55.19801 64 ft 3 kts 346°
2026-04-14 18:11 5.45503 -55.19804 65 ft 7 kts
2026-04-14 18:11 5.45522 -55.19803 65 ft 1 kts
2026-04-14 18:12 5.45523 -55.19803 65 ft 0 kts